STARLINK-35353, 65669

Orbit data source: Space-Track

STARLINK-35353, 65669 is a payload satellite owned by SpaceX/Seattle (US) in SSO that was launched on Fri, 19 Sep 2025 UTC via an FALCON 9 launch vehicle from the Air Force Western Test Range (AFWTR). Payload-class satellites include a variety of spacecraft equipped with specific instruments for various scientific and technological missions. These include communications satellites like Starlink; space stations such as the ISS; scientific satellites like the Hubble; Earth observation satellites from companies like Planet Labs, Umbra, and HawkEye 360; GPS; miniature CubeSats for education and research; and military/defense satellites.

Loading next visibility...
Identifier
65669, 2025-211T
Orbit
SSO
Country
Flag of USUS
Related business
Manufacturer
SpaceX/Seattle
Mission
Operational Commercial Communications
Bus & Motor
STARLINK V2MO, Unknown motor
Mass
575 kg wet, ~530 kg dry
Launch date (UTC)
2025-09-19 (9 months ago)
Launch vehicle
FALCON 9
Launch site
Air Force Western Test Range (AFWTR)
Object type
Payload
Rocket body
Debris
Shape & HBR
Box + 2 Pan, 17.7 m
Radar Cross Section
36.964 m², Large (>1 m²)

Expand to show TLE details & history
Last TLE update: 13 hours ago

TLE from 13 hours ago
0 STARLINK-35353
1 65669U 25211T   26171.35611287  .00002330  00000-0  16538-3 0  9997
2 65669  97.3387 214.2321 0001117  91.4066 268.7289 15.05656639 42499
Epoch: 2026-06-20T08:32Z
TLE epoch observation values (Epoch: 2026-06-20T08:32:48.151Z)
Latitude
-0.0001°
Longitude
177.45957°
Altitude
552.581 km
Speed
7.585 km/s
True Right ascension
14h 16m 55s
True Declination
0° 00' 00"
Sunlit
Object was in full shadow at epoch
Visualization orbit readout
Latitude
Unknown
Longitude
Unknown
Altitude
Unknown
Speed
Unknown
Apparent Right ascension
Unknown
Apparent Declination
Unknown
Sunlit
N/A
Visualization observer readout
Local Sidereal Time
08:32:57
Azimuth
Unknown
Elevation
Unknown
Doppler factor
Unknown
Orbital elements
Apogee altitude
547.246 km
Perigee altitude
545.699 km
Semi-major axis
6,924.61 km
Eccentricity
0.00011
Inclination
97.3387°
RAAN
214.2321°
Arg. of periapsis
91.4066°
True anomaly
268.7161°
Mean anomaly
268.7289°
Eccentric anomaly
268.7225°
Mean motion
3.76661 °/min
Orbital period
95.58 mins
BSTAR
0.00016538
Loading maneuver chart data...
Computing Atmospheric mass density...
Loading historical data...
Loading historical data...
Loading historical data...
Loading historical data...
Loading historical data...
Loading historical data...
Loading historical data...

Documentation

Showing up to 5 results
|